Location: Andershausen
(51.8462°N, 9.8595°E)
Time: 12:25:15
(UTC+00:00)

Cosmos 1441 Rocket - Pass Details

Date: 18 November 2025
Orbit: 424 x 448 km, 81.1° (Epoch: 09 December)

Event Time Altitude Azimuth Distance (km) Brightness Sun altitude
Rises 16:00:22 0° 344° (NNW) 2,407 6.5 -5.6°
Reaches altitude 10° 16:02:26 10° 342° (NNW) 1,538 5.6 -5.8°
Maximum altitude 16:05:45 66° 260° (W) 477 3.3 -6.3°
Drops below altitude 10° 16:09:04 10° 178° (S) 1,536 5.9 -6.8°
Sets 16:11:07 0° 175° (S) 2,404 6.8 -7.1°
